Weather in Pravaya Khava

Russia / Voronezh Oblast     51°43′26″N   39°47′03″E
temp.,
°C
wind,
m/s
gust,
m/s
humid.,
%
clouds,
%
prec.,
mm/h
press.,
hPa
HPBL,
m
3 march, wed
wed300:000nnw5997100 0.2 1010480
03:00−2nw5119495 0.6 1012434
06:00−1nnw6108987 0.1 1013745
09:00−2nnw7119091 0.3 1016840
12:00−1nnw697999 0.1 10171019
15:00−1nw687692 0.1 1019984
18:00−3wnw48860 0.0 1019189
21:00−2w499130 0.0 1019391
4 march, thu
thu400:00−1w4119199 0.1 1017721
03:00−1wsw5118799 0.1 1016621
06:00−2wsw5129277 0.0 1014392
09:00−1wsw7138542 0.0 1012523
12:00+2wsw814775 0.0 1010777
15:00+3wsw814693 0.0 1008854
18:00+2sw614774 0.0 1006444
21:00+2wsw6158752 0.0 1004632
5 march, fri
fri500:00+3wsw71491100 0.0 1003556
03:00+2wsw61494100 0.1 1003581
06:00+1w71487100 0.2 1003711
09:00+1w6118288 0.3 1005852
12:00+2w687497 0.1 10071077
15:00+1nnw458299 0.2 1009592
18:00−1nne4684100 0.3 1010581
21:00−2ne4683100 0.3 1011562
6 march, sat
sat600:00−3nne4683100 0.0 1012549
03:00−4n478090 0.0 1014502
06:00−4n357546 0.0 1015410
09:00−4nnw357866 0.0 1016452
12:00−2nnw34490 0.0 1017898
15:00−1nw23430 0.0 10161390
18:00−2nnw235634 0.0 1016114
21:00−4ne118159 0.1 1017287
7 march, sun
sun700:00−4n228484 0.2 1018250
03:00−5nw358276 0.3 1018539
06:00−5wsw487122 0.0 1017608
09:00−4wsw8125831 0.0 10151050
12:00−2sw101546100 0.0 10131219
15:000sw11174798 0.0 10091401
18:000wsw9175699 0.0 10071401
21:00−1wsw8166899 0.0 10051200